Flag for U.S.A. Weather past 2 weeks in Sevierville, Tennessee, U.S.A.

Now
57 °F

Scattered clouds.


Feels Like: 57 °F
Forecast: 47 / 74 °F
Wind: 5 mph from East

Location: McGhee Tyson Airport


UV Index: 5 (Moderate)

Visibility: 10 mi


Pressure: 30.24 "Hg

Humidity: 69%

Dew point: 47 °F

Location of SeviervilleLocation

Historic Weather in Sevierville

°F

Sevierville temperature yesterday

Maximum temperature yesterday: 65 °F (at 3:53 PM)
Minimum temperature yesterday: 51 °F (at 5:53 AM)
Average temperature yesterday: 57 °F

Past Weeks' High & Low Weather Summary

 TemperatureHumidityPressure
High82 °F (Apr 13, 3:53 PM)100% (Apr 7, 1:53 AM)30.42 "Hg (Apr 7, 1:53 AM)
Low31 °F (Apr 16, 5:53 AM)25% (Apr 11, 2:53 PM)29.52 "Hg (Apr 7, 4:53 PM)
Average57 °F61%30.04 "Hg
* Reported Apr 5 9:53 AM — Apr 20 9:53 AM, Sevierville, Weather by CustomWeather, © 2014

Note: Actual official high and low records may vary slightly from our data, if they occured in-between our weather recording intervals... More about our weather records

Advertising

Historic Weather Conditions — Data for Previous 24 hours

 ConditionsComfort  
Time TempWeatherWind HumidityBarometerVisibility
9:53 AM
Apr 20
57 °FScattered clouds.5 mph69%30.24 "Hg10 mi
9:00 AM51 °FFog.3 mph92%30.25 "Hg3 mi
7:58 AM46 °FFog.No wind100%30.25 "Hg2 mi
7:00 AM45 °FFog.3 mph97%30.23 "Hg3 mi
5:53 AM46 °FFog.No wind96%30.21 "Hg1 mi
4:53 AM48 °FFog.3 mph96%30.19 "Hg6 mi
3:53 AM49 °FPassing clouds.No wind97%30.18 "Hg6 mi
2:53 AM50 °FPassing clouds.No wind96%30.15 "Hg7 mi
1:53 AM50 °FPassing clouds.3 mph93%30.16 "Hg8 mi
11:53 PM
Apr 19
53 °FPassing clouds.No wind93%30.17 "Hg10 mi
10:53 PM54 °FPassing clouds.No wind93%30.17 "Hg10 mi
9:53 PM55 °FPassing clouds.5 mph90%30.16 "Hg10 mi
8:53 PM57 °FScattered clouds.5 mph78%30.14 "Hg10 mi
7:53 PM59 °FBroken clouds.3 mph78%30.13 "Hg10 mi
6:53 PM60 °FPartly sunny.3 mph78%30.13 "Hg10 mi
5:53 PM60 °FLight rain. Overcast.3 mph72%30.12 "Hg10 mi
4:53 PM61 °FLight rain. Overcast.6 mph60%30.12 "Hg10 mi
3:53 PM65 °FLight rain. Mostly cloudy.8 mph39%30.12 "Hg10 mi
2:53 PM63 °FLight rain. Mostly cloudy.8 mph43%30.13 "Hg10 mi
1:53 PM62 °FMostly cloudy.10 mph44%30.14 "Hg10 mi
12:53 PM63 °FMore clouds than sun.9 mph43%30.14 "Hg10 mi
11:53 AM64 °FMostly cloudy.15 mph45%30.14 "Hg10 mi
Weather by CustomWeather, © 2014

See weather overview